Dushanbe, Tajikistan

10:23 AM +05 on December 15, 2018 (GMT +0500)
Dushanbe

Weather History for UTDD - October, 2018

Change the Weather History Date:

Friday, October 12, 2018

  Actual Average Record
Temperature  
Mean Temperature 54 °F -  
Max Temperature 70 °F - - ()
Min Temperature 37 °F - - ()
Degree Days  
Heating Degree Days 12    
Growing Degree Days 4 (Base 50)    
Moisture  
Dew Point 40 °F    
Average Humidity 62    
Maximum Humidity 88    
Minimum Humidity 24    
Precipitation  
Precipitation 0.00 in 0.05 in - ()
Sea Level Pressure  
Sea Level Pressure 30.15 in    
Wind  
Wind Speed 2 mph ()    
Max Wind Speed 4 mph    
Max Gust Speed -    
Visibility 5.5 miles    
Events      
T = Trace of Precipitation, MM = Missing Value Source: Averaged Metar Reports

Daily Weather History Graph

Daily Weather History Graph

Search for Another Location

Airport or City:

Astronomy

Oct. 12, 2018 Rise Set
Actual Time 6:30 AM +05 5:51 PM +05
Civil Twilight 6:04 AM +05 6:18 PM +05
Nautical Twilight 5:33 AM +05 6:48 PM +05
Astronomical Twilight 5:02 AM +05 7:19 PM +05
Moon 9:36 AM +05 (10/12) 8:12 PM +05 (10/12)
Length of Visible Light 12h 14m
Length of Day
11h 20m
Waxing Crescent, 11% of the Moon is Illuminated
Oct 12
Waxing Crescent
Oct 16
First Quarter
Oct 24
Full
Oct 31
Last Quarter
Nov 7
New

Hourly Weather History & Observations

Time (+05) Temp. Windchill Dew Point Humidity Pressure Visibility Wind Dir Wind Speed Gust Speed Precip Events Conditions
12:00 AM 46.4 °F - 39.2 °F 76% 30.18 in 5.6 mi Calm Calm - N/A   Unknown
12:30 AM 44.6 °F - 39.2 °F 81% 30.18 in 6.2 mi Variable 2.2 mph - N/A   Unknown
1:00 AM 46.4 °F - 39.2 °F 76% 30.15 in 6.2 mi Variable 2.2 mph - N/A   Unknown
1:30 AM 44.6 °F 42.3 °F 39.2 °F 81% 30.15 in 6.2 mi East 4.5 mph - N/A   Unknown
2:00 AM 42 °F - 34 °F 64% 30.19 in - Calm Calm - -   Clear
2:00 AM 46.4 °F - 39.2 °F 76% 30.15 in 6.2 mi NE 2.2 mph - N/A   Unknown
2:30 AM 44.6 °F - 39.2 °F 81% 30.15 in 6.2 mi Calm Calm - N/A   Unknown
3:00 AM 42.8 °F - 37.4 °F 81% 30.15 in 5.6 mi Variable 2.2 mph - N/A   Unknown
3:30 AM 42.8 °F - 39.2 °F 87% 30.15 in 4.3 mi ESE 2.2 mph - N/A   Unknown
4:00 AM 42.8 °F - 39.2 °F 87% 30.15 in 5.0 mi Variable 2.2 mph - N/A   Unknown
4:30 AM 42.8 °F - 39.2 °F 87% 30.15 in 5.0 mi Calm Calm - N/A   Unknown
5:00 AM 40 °F - 36 °F 81% 30.21 in - Calm Calm - -   Clear
5:00 AM 42.8 °F 40.2 °F 39.2 °F 87% 30.15 in 5.6 mi North 4.5 mph - N/A   Unknown
5:30 AM 41.0 °F - 37.4 °F 87% 30.15 in 5.6 mi Variable 2.2 mph - N/A   Unknown
6:00 AM 41.0 °F - 37.4 °F 87% 30.18 in 4.3 mi ESE 2.2 mph - N/A   Unknown
6:30 AM 41.0 °F 38.1 °F 37.4 °F 87% 30.18 in 3.7 mi North 4.5 mph - N/A   Unknown
7:00 AM 42.8 °F 40.2 °F 39.2 °F 87% 30.18 in 4.3 mi NE 4.5 mph - N/A   Unknown
7:30 AM 44.6 °F - 41.0 °F 87% 30.18 in 3.7 mi Variable 2.2 mph - N/A   Unknown
8:00 AM 44 °F - 42 °F 88% 30.17 in 31 mi Calm Calm - -   Clear
8:00 AM 46.4 °F - 41.0 °F 81% 30.18 in 1.4 mi South 2.2 mph - N/A   Mist
8:30 AM 50.0 °F - 42.8 °F 76% 30.21 in - Calm Calm - N/A   Mist
9:00 AM 53.6 °F - 42.8 °F 67% 30.21 in 3.7 mi Variable 2.2 mph - N/A   Unknown
9:30 AM 53.6 °F - 42.8 °F 67% 30.21 in 6.2 mi Variable 2.2 mph - N/A   Unknown
10:00 AM 57.2 °F - 42.8 °F 59% 30.21 in 6.2 mi Variable 2.2 mph - N/A   Unknown
10:30 AM 59.0 °F - 42.8 °F 55% 30.21 in 6.2 mi Variable 2.2 mph - N/A   Unknown
11:00 AM 60 °F - 46 °F 49% 30.03 in 31 mi Calm Calm - -   Clear
11:00 AM 59.0 °F - 39.2 °F 48% 30.21 in 6.2 mi Variable 2.2 mph - N/A   Unknown
11:30 AM 64.4 °F - 41.0 °F 42% 30.18 in 6.2 mi Variable 2.2 mph - N/A   Unknown
12:00 PM 64.4 °F - 39.2 °F 40% 30.18 in 6.2 mi Variable 2.2 mph - N/A   Unknown
12:30 PM 66.2 °F - 39.2 °F 37% 30.18 in 6.2 mi Variable 2.2 mph - N/A   Unknown
1:00 PM 66.2 °F - 37.4 °F 35% 30.15 in 6.2 mi Variable 2.2 mph - N/A   Unknown
1:30 PM 68.0 °F - 37.4 °F 33% 30.15 in 6.2 mi Variable 2.2 mph - N/A   Unknown
2:00 PM 69 °F - 42 °F 26% 29.95 in 31 mi Calm Calm - -   Clear
2:00 PM 69.8 °F - 37.4 °F 31% 30.12 in 6.2 mi Variable 4.5 mph - N/A   Unknown
2:30 PM 69.8 °F - 37.4 °F 31% 30.12 in 6.2 mi Variable 4.5 mph - N/A   Unknown
3:00 PM 69.8 °F - 33.8 °F 27% 30.12 in 6.2 mi Variable 4.5 mph - N/A   Unknown
3:30 PM 68.0 °F - 37.4 °F 33% 30.12 in 6.2 mi Variable 2.2 mph - N/A   Unknown
4:00 PM 69.8 °F - 37.4 °F 31% 30.12 in 6.2 mi Variable 4.5 mph - N/A   Unknown
4:30 PM 68.0 °F - 37.4 °F 33% 30.12 in 6.2 mi Variable 2.2 mph - N/A   Unknown
5:00 PM 68 °F - 40 °F 24% 29.90 in 31 mi Calm Calm - -   Clear
5:00 PM 68.0 °F - 39.2 °F 35% 30.12 in 6.2 mi South 2.2 mph - N/A   Unknown
5:30 PM 66.2 °F - 39.2 °F 37% 30.12 in 6.2 mi South 4.5 mph - N/A   Unknown
6:00 PM 64.4 °F - 39.2 °F 40% 30.12 in 6.2 mi Variable 4.5 mph - N/A   Unknown
6:30 PM 60.8 °F - 42.8 °F 52% 30.12 in 5.6 mi North 2.2 mph - N/A   Unknown
7:00 PM 59.0 °F - 42.8 °F 55% 30.12 in 5.0 mi Calm Calm - N/A   Unknown
7:30 PM 57.2 °F - 42.8 °F 59% 30.15 in 5.6 mi Calm Calm - N/A   Unknown
8:00 PM 50 °F - 43 °F 68% 30.01 in - Calm Calm - -   Scattered Clouds
8:00 PM 55.4 °F - 42.8 °F 63% 30.15 in 5.0 mi Variable 2.2 mph - N/A   Unknown
8:30 PM 53.6 °F - 42.8 °F 67% 30.15 in 5.6 mi North 4.5 mph - N/A   Unknown
9:00 PM 53.6 °F - 42.8 °F 67% 30.15 in 6.2 mi ESE 2.2 mph - N/A   Unknown
9:30 PM 51.8 °F - 42.8 °F 71% 30.15 in 3.7 mi ENE 4.5 mph - N/A   Unknown
10:00 PM 51.8 °F - 42.8 °F 71% 30.15 in 5.0 mi NNE 4.5 mph - N/A   Unknown
10:30 PM 51.8 °F - 42.8 °F 71% 30.18 in 6.2 mi Variable 2.2 mph - N/A   Unknown
11:00 PM 47 °F - 41 °F 73% 30.05 in - Calm Calm - -  
11:00 PM 50.0 °F - 41.0 °F 71% 30.18 in 5.6 mi Calm Calm - N/A   Unknown
11:30 PM 50.0 °F - 42.8 °F 76% 30.18 in 4.3 mi ENE 4.5 mph - N/A   Unknown